sat.trackr.live / text

‹ back to catalog

STAR ONE D2

NORAD 49055 · 2021-069A

PAYLOAD ACTIVE UNKNOWN

§ Identity

Operator
Country
BRAZ
Launch date
2021-07-30
Launch site
FRGUI
Launch vehicle
Mass (kg)
RCS (m²)

Purposes: comms

External: N2YO · Heavens-Above · Gunter

§ Orbital elements

Epoch: 2026-09-09T01:44:46.292928Z

Period
1,436.13 min
Inclination
0.0310°
Eccentricity
0.0002671
Mean motion
1.00269271 rev/d
Perigee alt
35,776.0 km
Apogee alt
35,798.6 km
Semi-major
42,165.4 km
B*
0.0000e+0
RAAN
137.3689°
Arg perigee
32.6851°
Mean anomaly
134.1897°
Rev number
1,879

§ Raw data

STAR ONE D21 49055U 21069A   26252.07275802  .00000000  00000+0  00000+0 0  99972 49055   0.0310 137.3689 0002671  32.6851 134.1897  1.00269271 18793

JSON: /api/v1/satellites/49055 · /tle

For live sub-satellite position, see the globe view (requires WebGL).

§ Visibility from observer

Set your observer location to see the next 7 days of passes ≥ 10°. The values pass through the URL so the page stays shareable.

No JS? Fill the form by hand. The geolocation button needs JavaScript.